TimePDT,TemperatureF,Dew PointF,Humidity,Sea Level PressureIn,VisibilityMPH,Wind Direction,Wind SpeedMPH,Gust SpeedMPH,PrecipitationIn,Events,Conditions,WindDirDegrees,DateUTC
12:15 AM,39.2,-9999,N/A,30.40,10.0,South,5.8,-,N/A,,Clear,170,2012-10-14 07:15:00
12:35 AM,35.6,-9999,N/A,30.41,10.0,SSE,3.5,-,N/A,,Clear,160,2012-10-14 07:35:00
12:55 AM,37.4,-9999,N/A,30.40,10.0,South,5.8,-,N/A,,Clear,180,2012-10-14 07:55:00
1:15 AM,37.4,-9999,N/A,30.41,10.0,SSW,4.6,-,N/A,,Clear,200,2012-10-14 08:15:00
1:35 AM,35.6,-9999,N/A,30.41,10.0,South,6.9,-,N/A,,Clear,170,2012-10-14 08:35:00
1:55 AM,35.6,-9999,N/A,30.42,10.0,South,5.8,-,N/A,,Clear,180,2012-10-14 08:55:00
2:15 AM,35.6,-9999,N/A,30.43,10.0,South,6.9,-,N/A,,Clear,180,2012-10-14 09:15:00
2:35 AM,33.8,-9999,N/A,30.43,10.0,South,4.6,-,N/A,,Clear,170,2012-10-14 09:35:00
2:55 AM,35.6,-9999,N/A,30.42,10.0,South,5.8,-,N/A,,Clear,190,2012-10-14 09:55:00
3:15 AM,35.6,-9999,N/A,30.43,10.0,SSW,6.9,-,N/A,,Clear,200,2012-10-14 10:15:00
3:35 AM,35.6,-9999,N/A,30.42,10.0,South,3.5,-,N/A,,Clear,170,2012-10-14 10:35:00
3:55 AM,32.0,-9999,N/A,30.42,10.0,Calm,Calm,-,N/A,,Clear,0,2012-10-14 10:55:00
4:15 AM,32.0,-9999,N/A,30.42,10.0,SSE,6.9,-,N/A,,Clear,150,2012-10-14 11:15:00
4:35 AM,35.6,-9999,N/A,30.43,10.0,South,8.1,-,N/A,,Clear,180,2012-10-14 11:35:00
4:55 AM,33.8,-9999,N/A,30.43,10.0,South,6.9,-,N/A,,Clear,180,2012-10-14 11:55:00
5:15 AM,32.0,-9999,N/A,30.43,10.0,SSW,5.8,-,N/A,,Clear,200,2012-10-14 12:15:00
5:35 AM,33.8,-9999,N/A,30.44,10.0,South,5.8,-,N/A,,Clear,190,2012-10-14 12:35:00
5:55 AM,32.0,-9999,N/A,30.44,10.0,SSW,6.9,-,N/A,,Clear,210,2012-10-14 12:55:00
6:15 AM,32.0,-9999,N/A,30.44,10.0,SSW,6.9,-,N/A,,Clear,200,2012-10-14 13:15:00
6:35 AM,32.0,-9999,N/A,30.44,10.0,South,6.9,-,N/A,,Clear,180,2012-10-14 13:35:00
6:55 AM,35.6,-9999,N/A,30.44,10.0,SSW,4.6,-,N/A,,Clear,200,2012-10-14 13:55:00
7:15 AM,33.8,-9999,N/A,30.44,10.0,SSW,6.9,-,N/A,,Clear,200,2012-10-14 14:15:00
7:35 AM,33.8,-9999,N/A,30.45,10.0,SSW,6.9,-,N/A,,Clear,210,2012-10-14 14:35:00
7:55 AM,37.4,-9999,N/A,30.45,10.0,Calm,Calm,-,N/A,,Clear,0,2012-10-14 14:55:00
8:15 AM,41.0,-9999,N/A,30.46,10.0,Calm,Calm,-,N/A,,Clear,0,2012-10-14 15:15:00
8:35 AM,44.6,-9999,N/A,30.47,10.0,Calm,Calm,-,N/A,,Clear,0,2012-10-14 15:35:00
8:55 AM,46.4,-9999,N/A,30.47,10.0,West,4.6,-,N/A,,Clear,270,2012-10-14 15:55:00
9:15 AM,48.2,-9999,N/A,30.47,10.0,Calm,Calm,-,N/A,,Clear,0,2012-10-14 16:15:00
9:35 AM,50.0,-9999,N/A,30.47,10.0,Calm,Calm,-,N/A,,Clear,0,2012-10-14 16:35:00
9:55 AM,51.8,-9999,N/A,30.45,10.0,Calm,Calm,-,N/A,,Clear,0,2012-10-14 16:55:00
10:15 AM,55.4,-9999,N/A,30.45,10.0,Calm,Calm,-,N/A,,Clear,0,2012-10-14 17:15:00
10:35 AM,57.2,-9999,N/A,30.44,10.0,Calm,Calm,-,N/A,,Clear,0,2012-10-14 17:35:00
10:55 AM,59.0,-9999,N/A,30.44,10.0,Calm,Calm,-,N/A,,Clear,0,2012-10-14 17:55:00
11:15 AM,59.0,-9999,N/A,30.43,10.0,Calm,Calm,-,N/A,,Clear,0,2012-10-14 18:15:00
11:35 AM,60.8,-9999,N/A,30.43,10.0,NW,3.5,-,N/A,,Clear,320,2012-10-14 18:35:00
11:55 AM,62.6,-9999,N/A,30.42,10.0,WSW,4.6,-,N/A,,Clear,240,2012-10-14 18:55:00
12:15 PM,62.6,-9999,N/A,30.42,10.0,ESE,4.6,-,N/A,,Clear,110,2012-10-14 19:15:00
12:35 PM,64.4,-9999,N/A,30.41,10.0,Calm,Calm,-,N/A,,Clear,0,2012-10-14 19:35:00
12:55 PM,66.2,-9999,N/A,30.40,10.0,South,3.5,-,N/A,,Clear,190,2012-10-14 19:55:00
1:15 PM,66.2,-9999,N/A,30.38,10.0,SSW,5.8,-,N/A,,Clear,200,2012-10-14 20:15:00
1:35 PM,68.0,-9999,N/A,30.37,10.0,WSW,6.9,-,N/A,,Clear,250,2012-10-14 20:35:00
1:55 PM,68.0,-9999,N/A,30.36,10.0,SW,6.9,-,N/A,,Clear,230,2012-10-14 20:55:00
2:15 PM,68.0,-9999,N/A,30.35,10.0,South,3.5,-,N/A,,Clear,180,2012-10-14 21:15:00
2:35 PM,68.0,-9999,N/A,30.35,10.0,West,3.5,-,N/A,,Clear,260,2012-10-14 21:35:00
2:55 PM,69.8,-9999,N/A,30.34,10.0,West,3.5,-,N/A,,Clear,270,2012-10-14 21:55:00
3:15 PM,69.8,-9999,N/A,30.33,10.0,South,3.5,-,N/A,,Clear,190,2012-10-14 22:15:00
3:35 PM,71.6,-9999,N/A,30.33,10.0,South,3.5,-,N/A,,Clear,170,2012-10-14 22:35:00
3:55 PM,71.6,-9999,N/A,30.32,10.0,SSE,3.5,-,N/A,,Clear,160,2012-10-14 22:55:00
4:15 PM,71.6,-9999,N/A,30.31,10.0,Calm,Calm,-,N/A,,Clear,0,2012-10-14 23:15:00
4:35 PM,71.6,-9999,N/A,30.31,10.0,SSE,3.5,-,N/A,,Clear,160,2012-10-14 23:35:00
4:55 PM,69.8,-9999,N/A,30.30,10.0,SSW,3.5,-,N/A,,Clear,200,2012-10-14 23:55:00
5:15 PM,69.8,-9999,N/A,30.30,10.0,West,3.5,-,N/A,,Clear,280,2012-10-15 00:15:00
5:35 PM,68.0,-9999,N/A,30.30,10.0,Calm,Calm,-,N/A,,Clear,0,2012-10-15 00:35:00
5:55 PM,66.2,-9999,N/A,30.30,10.0,Calm,Calm,-,N/A,,Clear,0,2012-10-15 00:55:00
6:15 PM,59.0,-9999,N/A,30.29,10.0,SE,8.1,-,N/A,,Clear,130,2012-10-15 01:15:00
6:35 PM,55.4,-9999,N/A,30.30,10.0,SSE,5.8,-,N/A,,Clear,160,2012-10-15 01:35:00
6:55 PM,53.6,-9999,N/A,30.30,10.0,SSW,8.1,-,N/A,,Clear,200,2012-10-15 01:55:00
7:15 PM,51.8,-9999,N/A,30.30,10.0,South,4.6,-,N/A,,Clear,180,2012-10-15 02:15:00
7:35 PM,50.0,-9999,N/A,30.30,10.0,South,4.6,-,N/A,,Clear,190,2012-10-15 02:35:00
7:55 PM,48.2,-9999,N/A,30.30,10.0,SE,4.6,-,N/A,,Clear,140,2012-10-15 02:55:00
8:15 PM,50.0,-9999,N/A,30.30,10.0,Calm,Calm,-,N/A,,Clear,0,2012-10-15 03:15:00
8:35 PM,48.2,-9999,N/A,30.30,10.0,Calm,Calm,-,N/A,,Clear,0,2012-10-15 03:35:00
8:55 PM,48.2,-9999,N/A,30.29,10.0,SSW,5.8,-,N/A,,Clear,200,2012-10-15 03:55:00
9:15 PM,44.6,-9999,N/A,30.29,10.0,Calm,Calm,-,N/A,,Clear,0,2012-10-15 04:15:00
9:35 PM,42.8,-9999,N/A,30.29,10.0,SW,5.8,-,N/A,,Clear,230,2012-10-15 04:35:00
10:15 PM,44.6,-9999,N/A,30.29,10.0,SW,8.1,-,N/A,,Clear,220,2012-10-15 05:15:00
10:35 PM,46.4,-9999,N/A,30.29,10.0,SSW,6.9,-,N/A,,Clear,210,2012-10-15 05:35:00
10:55 PM,46.4,-9999,N/A,30.29,10.0,SSW,6.9,-,N/A,,Clear,210,2012-10-15 05:55:00
11:15 PM,44.6,-9999,N/A,30.28,10.0,South,5.8,-,N/A,,Clear,190,2012-10-15 06:15:00
11:35 PM,42.8,-9999,N/A,30.28,10.0,SSW,6.9,-,N/A,,Clear,200,2012-10-15 06:35:00
11:55 PM,39.2,-9999,N/A,30.27,10.0,South,3.5,-,N/A,,Clear,180,2012-10-15 06:55:00